PRIVATE WETTERSTATION BILLIGHEIM-ALLFELD                       ZURCK
Wetterdaten: Montag, 30.01.2017
Datum Zeit Temp. A. Temp. A. min Temp. A. max Feuchte A. Luftdruck Regen Wind Richtung Richtung Sonnenschein ET Solar Taupunkt Windchill Windben Empfang
30.01.2017 00:00 -2,0 C -2,1 C -2,0 C 92 % 1021,5 hPa 0,0 l/m 0,0 km/h (0 Bft) N-NW 334 0 min 0,000 mm 0 W/m -3,1 C -2,0 C 0,0 km/h (0 Bft) 98 %
30.01.2017 00:10 -2,1 C -2,1 C -2,0 C 91 % 1021,7 hPa 0,0 l/m 0,0 km/h (0 Bft) N-NW 334 0 min 0,000 mm 0 W/m -3,4 C -2,1 C 0,0 km/h (0 Bft) 98 %
30.01.2017 00:20 -2,1 C -2,2 C -2,1 C 91 % 1021,5 hPa 0,0 l/m 0,0 km/h (0 Bft) N-NW 334 0 min 0,000 mm 0 W/m -3,4 C -2,1 C 0,0 km/h (0 Bft) 98 %
30.01.2017 00:30 -1,9 C -2,1 C -1,9 C 91 % 1021,3 hPa 0,0 l/m 0,0 km/h (0 Bft) N-NW 334 0 min 0,000 mm 0 W/m -3,2 C -1,9 C 0,0 km/h (0 Bft) 97 %
30.01.2017 00:40 -1,8 C -1,9 C -1,8 C 91 % 1021,2 hPa 0,0 l/m 0,0 km/h (0 Bft) N-NW 334 0 min 0,000 mm 0 W/m -3,1 C -1,8 C 0,0 km/h (0 Bft) 97 %
30.01.2017 00:50 -2,0 C -2,0 C -1,8 C 92 % 1021,0 hPa 0,0 l/m 0,0 km/h (0 Bft) N-NW 334 0 min 0,000 mm 0 W/m -3,1 C -2,0 C 0,0 km/h (0 Bft) 98 %
30.01.2017 01:00 -2,3 C -2,3 C -2,0 C 91 % 1021,0 hPa 0,0 l/m 0,0 km/h (0 Bft) N-NW 334 0 min 0,000 mm 0 W/m -3,6 C -2,3 C 0,0 km/h (0 Bft) 97 %
30.01.2017 01:10 -2,6 C -2,6 C -2,3 C 91 % 1020,9 hPa 0,0 l/m 0,0 km/h (0 Bft) N-NW 334 0 min 0,000 mm 0 W/m -3,9 C -2,6 C 0,0 km/h (0 Bft) 98 %
30.01.2017 01:20 -2,8 C -2,8 C -2,6 C 92 % 1020,9 hPa 0,0 l/m 0,0 km/h (0 Bft) N-NW 334 0 min 0,000 mm 0 W/m -3,9 C -2,8 C 0,0 km/h (0 Bft) 97 %
30.01.2017 01:30 -2,9 C -2,9 C -2,8 C 91 % 1020,8 hPa 0,0 l/m 0,0 km/h (0 Bft) N-NW 334 0 min 0,000 mm 0 W/m -4,2 C -2,9 C 0,0 km/h (0 Bft) 97 %
30.01.2017 01:40 -2,9 C -2,9 C -2,9 C 92 % 1020,6 hPa 0,0 l/m 0,0 km/h (0 Bft) N-NW 334 0 min 0,000 mm 0 W/m -4,0 C -2,9 C 0,0 km/h (0 Bft) 98 %
30.01.2017 01:50 -3,2 C -3,2 C -2,9 C 91 % 1020,5 hPa 0,0 l/m 0,0 km/h (0 Bft) N-NW 334 0 min 0,000 mm 0 W/m -4,5 C -3,2 C 0,0 km/h (0 Bft) 97 %
30.01.2017 02:00 -3,4 C -3,4 C -3,2 C 92 % 1020,3 hPa 0,0 l/m 0,0 km/h (0 Bft) N-NW 334 0 min 0,000 mm 0 W/m -4,5 C -3,4 C 0,0 km/h (0 Bft) 98 %
30.01.2017 02:10 -3,6 C -3,6 C -3,4 C 92 % 1020,1 hPa 0,0 l/m 0,0 km/h (0 Bft) N-NW 334 0 min 0,000 mm 0 W/m -4,7 C -3,6 C 0,0 km/h (0 Bft) 97 %
30.01.2017 02:20 -3,7 C -3,7 C -3,6 C 92 % 1020,1 hPa 0,0 l/m 0,0 km/h (0 Bft) N-NW 334 0 min 0,000 mm 0 W/m -4,8 C -3,7 C 0,0 km/h (0 Bft) 97 %
30.01.2017 02:30 -3,8 C -3,8 C -3,7 C 92 % 1020,1 hPa 0,0 l/m 0,0 km/h (0 Bft) N-NW 334 0 min 0,000 mm 0 W/m -4,9 C -3,8 C 0,0 km/h (0 Bft) 97 %
30.01.2017 02:40 -3,9 C -3,9 C -3,8 C 92 % 1019,9 hPa 0,0 l/m 0,0 km/h (0 Bft) N-NW 334 0 min 0,000 mm 0 W/m -5,0 C -3,9 C 0,0 km/h (0 Bft) 97 %
30.01.2017 02:50 -4,0 C -4,0 C -3,9 C 92 % 1019,9 hPa 0,0 l/m 0,0 km/h (0 Bft) N-NW 334 0 min 0,000 mm 0 W/m -5,1 C -4,0 C 0,0 km/h (0 Bft) 98 %
30.01.2017 03:00 -4,0 C -4,1 C -3,9 C 92 % 1019,7 hPa 0,0 l/m 0,0 km/h (0 Bft) N-NW 334 0 min 0,000 mm 0 W/m -5,1 C -4,0 C 0,0 km/h (0 Bft) 97 %
30.01.2017 03:10 -3,9 C -4,1 C -3,9 C 92 % 1019,7 hPa 0,0 l/m 0,0 km/h (0 Bft) N-NW 334 0 min 0,000 mm 0 W/m -5,0 C -3,9 C 0,0 km/h (0 Bft) 98 %
30.01.2017 03:20 -3,9 C -3,9 C -3,9 C 92 % 1019,5 hPa 0,0 l/m 0,0 km/h (0 Bft) N-NW 334 0 min 0,000 mm 0 W/m -5,0 C -3,9 C 1,6 km/h (1 Bft) 98 %
30.01.2017 03:30 -4,1 C -4,1 C -3,9 C 92 % 1019,5 hPa 0,0 l/m 0,0 km/h (0 Bft) N-NW 334 0 min 0,000 mm 0 W/m -5,2 C -4,1 C 0,0 km/h (0 Bft) 97 %
30.01.2017 03:40 -4,2 C -4,2 C -4,1 C 92 % 1019,5 hPa 0,0 l/m 0,5 km/h (0 Bft) N-NW 334 0 min 0,000 mm 0 W/m -5,3 C -4,2 C 3,2 km/h (1 Bft) 98 %
30.01.2017 03:50 -4,3 C -4,3 C -4,2 C 92 % 1019,4 hPa 0,0 l/m 0,0 km/h (0 Bft) N-NW 334 0 min 0,000 mm 0 W/m -5,4 C -4,3 C 0,0 km/h (0 Bft) 99 %
30.01.2017 04:00 -4,2 C -4,3 C -4,2 C 92 % 1019,4 hPa 0,0 l/m 1,8 km/h (1 Bft) N-NW 334 0 min 0,000 mm 0 W/m -5,3 C -4,2 C 4,8 km/h (1 Bft) 100 %
30.01.2017 04:10 -4,1 C -4,3 C -4,1 C 92 % 1019,3 hPa 0,0 l/m 1,3 km/h (1 Bft) N-NW 338 0 min 0,000 mm 0 W/m -5,2 C -4,1 C 4,8 km/h (1 Bft) 100 %
30.01.2017 04:20 -3,7 C -4,1 C -3,7 C 92 % 1019,3 hPa 0,0 l/m 0,4 km/h (0 Bft) N-NW 338 0 min 0,000 mm 0 W/m -4,8 C -3,7 C 3,2 km/h (1 Bft) 100 %
30.01.2017 04:30 -3,3 C -3,7 C -3,3 C 92 % 1019,2 hPa 0,0 l/m 0,0 km/h (0 Bft) N-NW 338 0 min 0,000 mm 0 W/m -4,4 C -3,3 C 0,0 km/h (0 Bft) 98 %
30.01.2017 04:40 -2,9 C -3,3 C -2,9 C 92 % 1019,2 hPa 0,0 l/m 0,0 km/h (0 Bft) N-NW 338 0 min 0,000 mm 0 W/m -4,0 C -2,9 C 0,0 km/h (0 Bft) 100 %
30.01.2017 04:50 -2,8 C -2,9 C -2,8 C 92 % 1019,1 hPa 0,0 l/m 0,0 km/h (0 Bft) N-NW 338 0 min 0,000 mm 0 W/m -3,9 C -2,8 C 0,0 km/h (0 Bft) 100 %
30.01.2017 05:00 -2,9 C -2,9 C -2,8 C 92 % 1018,9 hPa 0,2 l/m 0,0 km/h (0 Bft) N-NW 338 0 min 0,000 mm 0 W/m -4,0 C -2,9 C 0,0 km/h (0 Bft) 100 %
30.01.2017 05:10 -3,1 C -3,1 C -2,9 C 92 % 1018,9 hPa 0,0 l/m 0,0 km/h (0 Bft) N-NW 338 0 min 0,000 mm 0 W/m -4,2 C -3,1 C 0,0 km/h (0 Bft) 100 %
30.01.2017 05:20 -3,1 C -3,1 C -3,1 C 92 % 1018,9 hPa 0,0 l/m 0,0 km/h (0 Bft) N-NW 338 0 min 0,000 mm 0 W/m -4,2 C -3,1 C 0,0 km/h (0 Bft) 100 %
30.01.2017 05:30 -3,1 C -3,1 C -3,1 C 92 % 1018,9 hPa 0,2 l/m 0,3 km/h (0 Bft) N-NW 338 0 min 0,000 mm 0 W/m -4,2 C -3,1 C 3,2 km/h (1 Bft) 100 %
30.01.2017 05:40 -3,1 C -3,2 C -3,1 C 92 % 1018,7 hPa 0,0 l/m 0,0 km/h (0 Bft) N-NW 338 0 min 0,000 mm 0 W/m -4,2 C -3,1 C 0,0 km/h (0 Bft) 99 %
30.01.2017 05:50 -2,9 C -3,1 C -2,9 C 92 % 1018,5 hPa 0,0 l/m 0,0 km/h (0 Bft) N-NW 338 0 min 0,000 mm 0 W/m -4,0 C -2,9 C 0,0 km/h (0 Bft) 100 %
30.01.2017 06:00 -2,9 C -2,9 C -2,9 C 92 % 1018,4 hPa 0,2 l/m 0,0 km/h (0 Bft) N-NW 338 0 min 0,000 mm 0 W/m -4,0 C -2,9 C 0,0 km/h (0 Bft) 100 %
30.01.2017 06:10 -2,8 C -2,9 C -2,8 C 92 % 1018,2 hPa 0,0 l/m 0,0 km/h (0 Bft) N-NW 338 0 min 0,000 mm 0 W/m -3,9 C -2,8 C 0,0 km/h (0 Bft) 100 %
30.01.2017 06:20 -2,8 C -2,8 C -2,8 C 92 % 1018,1 hPa 0,0 l/m 1,1 km/h (1 Bft) N-NW 338 0 min 0,000 mm 0 W/m -3,9 C -2,8 C 4,8 km/h (1 Bft) 100 %
30.01.2017 06:30 -2,7 C -2,8 C -2,7 C 92 % 1018,1 hPa 0,2 l/m 0,0 km/h (0 Bft) N-NW 338 0 min 0,000 mm 0 W/m -3,8 C -2,7 C 0,0 km/h (0 Bft) 99 %
30.01.2017 06:40 -2,6 C -2,7 C -2,6 C 92 % 1018,2 hPa 0,0 l/m 0,0 km/h (0 Bft) N-NW 338 0 min 0,000 mm 0 W/m -3,7 C -2,6 C 1,6 km/h (1 Bft) 100 %
30.01.2017 06:50 -2,3 C -2,6 C -2,3 C 92 % 1018,4 hPa 0,2 l/m 0,4 km/h (0 Bft) N-NW 338 0 min 0,000 mm 0 W/m -3,4 C -2,3 C 4,8 km/h (1 Bft) 98 %
30.01.2017 07:00 -1,7 C -2,3 C -1,7 C 92 % 1018,3 hPa 0,2 l/m 0,8 km/h (0 Bft) N-NW 338 0 min 0,000 mm 0 W/m -2,8 C -1,7 C 3,2 km/h (1 Bft) 94 %
30.01.2017 07:10 -0,2 C -1,7 C -0,2 C 92 % 1017,9 hPa 0,0 l/m 1,4 km/h (1 Bft) SO 132 0 min 0,000 mm 0 W/m -1,3 C -0,2 C 8,0 km/h (2 Bft) 100 %
30.01.2017 07:20 0,6 C -0,2 C 0,6 C 92 % 1017,3 hPa 0,2 l/m 6,1 km/h (2 Bft) O-SO 114 0 min 0,000 mm 0 W/m -0,5 C 0,6 C 14,5 km/h (3 Bft) 100 %
30.01.2017 07:30 1,1 C 0,6 C 1,1 C 92 % 1017,3 hPa 0,0 l/m 5,9 km/h (2 Bft) O 92 0 min 0,000 mm 0 W/m -0,1 C 1,1 C 16,1 km/h (3 Bft) 100 %
30.01.2017 07:40 1,0 C 1,0 C 1,3 C 92 % 1017,2 hPa 0,0 l/m 4,3 km/h (1 Bft) O-SO 123 0 min 0,000 mm 0 W/m -0,2 C 1,0 C 16,1 km/h (3 Bft) 100 %
30.01.2017 07:50 0,5 C 0,5 C 1,0 C 92 % 1017,6 hPa 0,2 l/m 4,3 km/h (1 Bft) S 173 0 min 0,000 mm 0 W/m -0,6 C 0,5 C 17,7 km/h (3 Bft) 100 %
30.01.2017 08:00 0,3 C 0,3 C 0,5 C 92 % 1017,5 hPa 0,2 l/m 6,1 km/h (2 Bft) SO 141 0 min 0,000 mm 0 W/m -0,8 C 0,3 C 14,5 km/h (3 Bft) 100 %
30.01.2017 08:10 0,3 C 0,3 C 0,4 C 92 % 1017,5 hPa 0,2 l/m 3,5 km/h (1 Bft) S-SO 163 0 min 0,000 mm 5 W/m -0,8 C 0,3 C 9,7 km/h (2 Bft) 100 %
30.01.2017 08:20 0,6 C 0,3 C 0,6 C 92 % 1017,3 hPa 0,2 l/m 5,7 km/h (1 Bft) SO 140 0 min 0,000 mm 9 W/m -0,5 C 0,6 C 9,7 km/h (2 Bft) 100 %
30.01.2017 08:30 0,8 C 0,6 C 0,8 C 92 % 1017,3 hPa 0,0 l/m 5,6 km/h (1 Bft) S-SO 148 0 min 0,000 mm 11 W/m -0,3 C 0,8 C 11,3 km/h (2 Bft) 100 %
30.01.2017 08:40 1,0 C 0,8 C 1,0 C 92 % 1017,2 hPa 0,0 l/m 4,3 km/h (1 Bft) S-SO 155 0 min 0,000 mm 19 W/m -0,2 C 1,0 C 9,7 km/h (2 Bft) 100 %
30.01.2017 08:50 1,0 C 1,0 C 1,0 C 92 % 1017,2 hPa 0,0 l/m 1,1 km/h (1 Bft) S-SO 155 0 min 0,000 mm 19 W/m -0,2 C 1,0 C 4,8 km/h (1 Bft) 100 %
30.01.2017 09:00 0,7 C 0,7 C 1,0 C 92 % 1017,2 hPa 0,0 l/m 2,0 km/h (1 Bft) S-SW 205 0 min 0,000 mm 28 W/m -0,4 C 0,7 C 8,0 km/h (2 Bft) 100 %
30.01.2017 09:10 0,7 C 0,6 C 0,7 C 92 % 1017,1 hPa 0,2 l/m 0,1 km/h (0 Bft) S 184 0 min 0,000 mm 30 W/m -0,4 C 0,7 C 3,2 km/h (1 Bft) 100 %
30.01.2017 09:20 0,9 C 0,7 C 0,9 C 92 % 1016,9 hPa 0,0 l/m 3,5 km/h (1 Bft) S-SO 147 0 min 0,000 mm 72 W/m -0,2 C 0,9 C 8,0 km/h (2 Bft) 100 %
30.01.2017 09:30 1,4 C 0,9 C 1,4 C 92 % 1016,7 hPa 0,2 l/m 6,5 km/h (2 Bft) SO 137 0 min 0,000 mm 142 W/m 0,2 C 1,3 C 14,5 km/h (3 Bft) 100 %
30.01.2017 09:40 1,8 C 1,4 C 1,8 C 92 % 1016,7 hPa 0,0 l/m 5,3 km/h (1 Bft) S-SO 159 0 min 0,000 mm 23 W/m 0,6 C 1,8 C 14,5 km/h (3 Bft) 100 %
30.01.2017 09:50 1,6 C 1,6 C 1,8 C 92 % 1016,6 hPa 0,2 l/m 5,9 km/h (2 Bft) SO 144 0 min 0,000 mm 37 W/m 0,4 C 1,6 C 12,9 km/h (3 Bft) 100 %
30.01.2017 10:00 1,7 C 1,6 C 1,7 C 92 % 1016,7 hPa 0,2 l/m 4,9 km/h (1 Bft) S-SO 167 0 min 0,025 mm 81 W/m 0,5 C 1,7 C 12,9 km/h (3 Bft) 100 %
30.01.2017 10:10 1,9 C 1,7 C 1,9 C 92 % 1016,4 hPa 0,0 l/m 4,7 km/h (1 Bft) SO 138 0 min 0,000 mm 84 W/m 0,7 C 1,9 C 11,3 km/h (2 Bft) 99 %
30.01.2017 10:20 2,1 C 1,9 C 2,1 C 92 % 1016,4 hPa 0,0 l/m 5,6 km/h (1 Bft) SO 145 0 min 0,000 mm 62 W/m 0,9 C 2,1 C 14,5 km/h (3 Bft) 100 %
30.01.2017 10:30 2,1 C 2,1 C 2,2 C 92 % 1016,5 hPa 0,2 l/m 6,0 km/h (2 Bft) SO 142 0 min 0,000 mm 44 W/m 0,9 C 2,1 C 11,3 km/h (2 Bft) 100 %
30.01.2017 10:40 2,2 C 2,1 C 2,2 C 92 % 1016,1 hPa 0,0 l/m 6,6 km/h (2 Bft) S-SO 152 0 min 0,000 mm 54 W/m 1,0 C 2,0 C 16,1 km/h (3 Bft) 100 %
30.01.2017 10:50 2,7 C 2,2 C 2,7 C 92 % 1016,1 hPa 0,2 l/m 7,7 km/h (2 Bft) SO 142 0 min 0,000 mm 40 W/m 1,5 C 1,5 C 16,1 km/h (3 Bft) 100 %
30.01.2017 11:00 2,9 C 2,7 C 2,9 C 92 % 1016,0 hPa 0,0 l/m 7,4 km/h (2 Bft) S-SO 161 0 min 0,026 mm 90 W/m 1,7 C 1,9 C 14,5 km/h (3 Bft) 100 %
30.01.2017 11:10 2,9 C 2,8 C 2,9 C 92 % 1016,0 hPa 0,0 l/m 4,6 km/h (1 Bft) S 190 0 min 0,000 mm 72 W/m 1,7 C 2,9 C 9,7 km/h (2 Bft) 100 %
30.01.2017 11:20 2,5 C 2,5 C 2,9 C 92 % 1015,9 hPa 0,0 l/m 4,3 km/h (1 Bft) S-SO 150 0 min 0,000 mm 69 W/m 1,3 C 2,5 C 9,7 km/h (2 Bft) 100 %
30.01.2017 11:30 2,6 C 2,5 C 2,6 C 92 % 1015,7 hPa 0,0 l/m 4,9 km/h (1 Bft) S-SO 159 0 min 0,000 mm 79 W/m 1,4 C 2,6 C 9,7 km/h (2 Bft) 100 %
30.01.2017 11:40 2,5 C 2,5 C 2,6 C 92 % 1015,6 hPa 0,0 l/m 5,4 km/h (1 Bft) S-SO 165 0 min 0,000 mm 79 W/m 1,3 C 2,5 C 11,3 km/h (2 Bft) 100 %
30.01.2017 11:50 2,6 C 2,5 C 2,6 C 92 % 1015,4 hPa 0,0 l/m 5,5 km/h (1 Bft) S-SO 168 0 min 0,000 mm 69 W/m 1,4 C 2,6 C 9,7 km/h (2 Bft) 99 %
30.01.2017 12:00 2,7 C 2,6 C 2,7 C 92 % 1015,4 hPa 0,0 l/m 4,2 km/h (1 Bft) S-SO 166 0 min 0,000 mm 88 W/m 1,5 C 2,7 C 9,7 km/h (2 Bft) 100 %
30.01.2017 12:10 2,8 C 2,7 C 2,8 C 92 % 1015,2 hPa 0,0 l/m 2,5 km/h (1 Bft) S-SO 167 0 min 0,025 mm 113 W/m 1,6 C 2,8 C 8,0 km/h (2 Bft) 100 %
30.01.2017 12:20 2,9 C 2,8 C 2,9 C 92 % 1015,1 hPa 0,0 l/m 0,8 km/h (0 Bft) S-SO 164 0 min 0,000 mm 88 W/m 1,7 C 2,9 C 8,0 km/h (2 Bft) 91 %
30.01.2017 12:30 2,9 C 2,8 C 2,9 C 92 % 1014,9 hPa 0,0 l/m 1,1 km/h (1 Bft) S-SO 167 0 min 0,000 mm 121 W/m 1,7 C 2,9 C 4,8 km/h (1 Bft) 100 %
30.01.2017 12:40 3,1 C 2,9 C 3,1 C 92 % 1014,8 hPa 0,0 l/m 4,3 km/h (1 Bft) S-SO 158 10 min 0,000 mm 178 W/m 1,9 C 3,1 C 8,0 km/h (2 Bft) 100 %
30.01.2017 12:50 3,2 C 3,1 C 3,2 C 92 % 1014,6 hPa 0,0 l/m 4,7 km/h (1 Bft) S-SO 164 10 min 0,000 mm 181 W/m 2,0 C 3,2 C 8,0 km/h (2 Bft) 100 %
30.01.2017 13:00 3,2 C 3,1 C 3,2 C 92 % 1014,4 hPa 0,0 l/m 4,8 km/h (1 Bft) S-SO 160 10 min 0,051 mm 163 W/m 2,0 C 3,2 C 9,7 km/h (2 Bft) 100 %
30.01.2017 13:10 3,4 C 3,2 C 3,4 C 92 % 1014,3 hPa 0,0 l/m 4,7 km/h (1 Bft) S-SO 161 10 min 0,000 mm 178 W/m 2,2 C 3,4 C 11,3 km/h (2 Bft) 100 %
30.01.2017 13:20 3,6 C 3,4 C 3,6 C 92 % 1014,1 hPa 0,0 l/m 4,8 km/h (1 Bft) S 180 10 min 0,000 mm 155 W/m 2,4 C 3,6 C 14,5 km/h (3 Bft) 100 %
30.01.2017 13:30 3,7 C 3,6 C 3,7 C 92 % 1014,0 hPa 0,0 l/m 5,2 km/h (1 Bft) S-SO 161 0 min 0,000 mm 132 W/m 2,5 C 3,7 C 9,7 km/h (2 Bft) 100 %
30.01.2017 13:40 3,8 C 3,7 C 3,8 C 92 % 1013,9 hPa 0,0 l/m 5,6 km/h (1 Bft) S 178 0 min 0,000 mm 132 W/m 2,6 C 3,8 C 14,5 km/h (3 Bft) 100 %
30.01.2017 13:50 3,8 C 3,8 C 3,8 C 92 % 1013,7 hPa 0,0 l/m 4,4 km/h (1 Bft) S 186 0 min 0,000 mm 139 W/m 2,6 C 3,8 C 9,7 km/h (2 Bft) 100 %
30.01.2017 14:00 3,8 C 3,8 C 3,9 C 92 % 1013,6 hPa 0,0 l/m 3,7 km/h (1 Bft) S 177 10 min 0,051 mm 186 W/m 2,6 C 3,8 C 9,7 km/h (2 Bft) 100 %
30.01.2017 14:10 3,9 C 3,8 C 3,9 C 92 % 1013,4 hPa 0,0 l/m 1,0 km/h (0 Bft) S 169 0 min 0,000 mm 109 W/m 2,7 C 3,9 C 11,3 km/h (2 Bft) 100 %
30.01.2017 14:20 4,1 C 3,9 C 4,1 C 92 % 1013,2 hPa 0,0 l/m 4,5 km/h (1 Bft) S-SW 203 0 min 0,000 mm 97 W/m 2,9 C 4,1 C 11,3 km/h (2 Bft) 99 %
30.01.2017 14:30 4,1 C 4,1 C 4,1 C 92 % 1013,1 hPa 0,0 l/m 5,8 km/h (2 Bft) S 189 0 min 0,000 mm 77 W/m 2,9 C 4,1 C 12,9 km/h (3 Bft) 100 %
30.01.2017 14:40 3,9 C 3,9 C 4,1 C 92 % 1012,9 hPa 0,0 l/m 5,7 km/h (1 Bft) S 171 0 min 0,000 mm 72 W/m 2,7 C 3,9 C 11,3 km/h (2 Bft) 99 %
30.01.2017 14:50 3,9 C 3,9 C 3,9 C 92 % 1012,8 hPa 0,0 l/m 5,1 km/h (1 Bft) S-SW 205 0 min 0,000 mm 23 W/m 2,7 C 3,9 C 16,1 km/h (3 Bft) 100 %
30.01.2017 15:00 3,8 C 3,8 C 3,9 C 92 % 1012,9 hPa 0,0 l/m 1,5 km/h (1 Bft) S-SW 208 0 min 0,025 mm 54 W/m 2,6 C 3,8 C 8,0 km/h (2 Bft) 99 %
30.01.2017 15:10 3,7 C 3,7 C 3,8 C 92 % 1012,8 hPa 0,0 l/m 2,9 km/h (1 Bft) S-SW 212 0 min 0,000 mm 49 W/m 2,5 C 3,7 C 8,0 km/h (2 Bft) 99 %
30.01.2017 15:20 3,8 C 3,7 C 3,8 C 92 % 1012,6 hPa 0,0 l/m 7,3 km/h (2 Bft) S-SO 156 0 min 0,000 mm 51 W/m 2,6 C 3,0 C 17,7 km/h (3 Bft) 100 %
30.01.2017 15:30 3,8 C 3,8 C 3,9 C 92 % 1012,7 hPa 0,0 l/m 5,6 km/h (1 Bft) S-SW 192 0 min 0,000 mm 30 W/m 2,6 C 3,8 C 11,3 km/h (2 Bft) 100 %
30.01.2017 15:40 3,8 C 3,8 C 3,9 C 92 % 1012,7 hPa 0,0 l/m 5,5 km/h (1 Bft) S-SW 192 0 min 0,000 mm 25 W/m 2,6 C 3,8 C 11,3 km/h (2 Bft) 100 %
30.01.2017 15:50 3,8 C 3,8 C 3,9 C 92 % 1012,6 hPa 0,0 l/m 4,0 km/h (1 Bft) S 182 0 min 0,000 mm 40 W/m 2,6 C 3,8 C 8,0 km/h (2 Bft) 99 %
30.01.2017 16:00 3,9 C 3,8 C 3,9 C 92 % 1012,7 hPa 0,0 l/m 4,2 km/h (1 Bft) S 190 0 min 0,026 mm 19 W/m 2,7 C 3,9 C 9,7 km/h (2 Bft) 99 %
30.01.2017 16:10 3,7 C 3,7 C 3,9 C 92 % 1012,7 hPa 0,0 l/m 3,7 km/h (1 Bft) S 178 0 min 0,000 mm 12 W/m 2,5 C 3,7 C 6,4 km/h (2 Bft) 99 %
30.01.2017 16:20 3,8 C 3,7 C 3,8 C 92 % 1012,7 hPa 0,0 l/m 1,3 km/h (1 Bft) S 178 0 min 0,000 mm 14 W/m 2,6 C 3,8 C 6,4 km/h (2 Bft) 99 %
30.01.2017 16:30 3,8 C 3,8 C 3,9 C 92 % 1012,8 hPa 0,0 l/m 0,2 km/h (0 Bft) S 179 0 min 0,000 mm 12 W/m 2,6 C 3,8 C 4,8 km/h (1 Bft) 98 %
30.01.2017 16:40 3,7 C 3,7 C 3,8 C 92 % 1012,9 hPa 0,0 l/m 1,8 km/h (1 Bft) S 182 0 min 0,000 mm 9 W/m 2,5 C 3,7 C 6,4 km/h (2 Bft) 97 %
30.01.2017 16:50 3,7 C 3,7 C 3,7 C 92 % 1012,8 hPa 0,0 l/m 3,2 km/h (1 Bft) S 180 0 min 0,000 mm 5 W/m 2,5 C 3,7 C 8,0 km/h (2 Bft) 98 %
30.01.2017 17:00 3,8 C 3,7 C 3,8 C 92 % 1012,8 hPa 0,0 l/m 4,4 km/h (1 Bft) S 174 0 min 0,000 mm 0 W/m 2,6 C 3,8 C 9,7 km/h (2 Bft) 97 %
30.01.2017 17:10 3,8 C 3,8 C 3,8 C 92 % 1012,9 hPa 0,0 l/m 5,0 km/h (1 Bft) S-SW 200 0 min 0,000 mm 0 W/m 2,6 C 3,8 C 11,3 km/h (2 Bft) 98 %
30.01.2017 17:20 3,7 C 3,7 C 3,8 C 92 % 1012,7 hPa 0,0 l/m 3,4 km/h (1 Bft) S-SW 194 0 min 0,000 mm 0 W/m 2,5 C 3,7 C 6,4 km/h (2 Bft) 98 %
30.01.2017 17:30 3,7 C 3,6 C 3,7 C 92 % 1012,8 hPa 0,0 l/m 2,9 km/h (1 Bft) S 190 0 min 0,000 mm 0 W/m 2,5 C 3,7 C 6,4 km/h (2 Bft) 97 %
30.01.2017 17:40 3,8 C 3,7 C 3,8 C 92 % 1012,7 hPa 0,0 l/m 4,1 km/h (1 Bft) S 184 0 min 0,000 mm 0 W/m 2,6 C 3,8 C 8,0 km/h (2 Bft) 98 %
30.01.2017 17:50 3,8 C 3,8 C 3,9 C 92 % 1012,9 hPa 0,0 l/m 4,2 km/h (1 Bft) S 182 0 min 0,000 mm 0 W/m 2,6 C 3,8 C 8,0 km/h (2 Bft) 97 %
30.01.2017 18:00 3,8 C 3,8 C 3,8 C 92 % 1012,9 hPa 0,0 l/m 4,2 km/h (1 Bft) S 183 0 min 0,000 mm 0 W/m 2,6 C 3,8 C 8,0 km/h (2 Bft) 97 %
30.01.2017 18:10 3,7 C 3,7 C 3,8 C 92 % 1012,8 hPa 0,0 l/m 4,4 km/h (1 Bft) S 184 0 min 0,000 mm 0 W/m 2,5 C 3,7 C 11,3 km/h (2 Bft) 98 %
30.01.2017 18:20 3,8 C 3,7 C 3,8 C 92 % 1012,9 hPa 0,0 l/m 5,4 km/h (1 Bft) S 186 0 min 0,000 mm 0 W/m 2,6 C 3,8 C 9,7 km/h (2 Bft) 97 %
30.01.2017 18:30 3,8 C 3,8 C 3,8 C 92 % 1012,9 hPa 0,0 l/m 6,9 km/h (2 Bft) S-SW 211 0 min 0,000 mm 0 W/m 2,6 C 3,3 C 14,5 km/h (3 Bft) 97 %
30.01.2017 18:40 4,0 C 3,8 C 4,0 C 92 % 1013,0 hPa 0,2 l/m 6,9 km/h (2 Bft) SW 221 0 min 0,000 mm 0 W/m 2,8 C 3,5 C 14,5 km/h (3 Bft) 98 %
30.01.2017 18:50 4,2 C 4,0 C 4,2 C 92 % 1013,0 hPa 0,2 l/m 7,3 km/h (2 Bft) S-SW 203 0 min 0,000 mm 0 W/m 3,0 C 3,4 C 16,1 km/h (3 Bft) 89 %
30.01.2017 19:00 4,2 C 4,2 C 4,2 C 92 % 1013,0 hPa 0,0 l/m 7,5 km/h (2 Bft) S-SW 211 0 min 0,000 mm 0 W/m 3,0 C 3,2 C 14,5 km/h (3 Bft) 98 %
30.01.2017 19:10 4,2 C 4,2 C 4,2 C 92 % 1012,9 hPa 0,0 l/m 6,6 km/h (2 Bft) S-SW 196 0 min 0,000 mm 0 W/m 3,0 C 4,0 C 9,7 km/h (2 Bft) 97 %
30.01.2017 19:20 4,0 C 4,0 C 4,2 C 92 % 1012,9 hPa 0,0 l/m 6,2 km/h (2 Bft) S 186 0 min 0,000 mm 0 W/m 2,8 C 4,0 C 9,7 km/h (2 Bft) 98 %
30.01.2017 19:30 3,9 C 3,9 C 4,0 C 92 % 1013,1 hPa 0,0 l/m 6,4 km/h (2 Bft) S-SW 209 0 min 0,000 mm 0 W/m 2,7 C 3,9 C 11,3 km/h (2 Bft) 97 %
30.01.2017 19:40 3,8 C 3,8 C 3,9 C 92 % 1013,3 hPa 0,0 l/m 2,1 km/h (1 Bft) SW 236 0 min 0,000 mm 0 W/m 2,6 C 3,8 C 8,0 km/h (2 Bft) 98 %
30.01.2017 19:50 4,0 C 3,8 C 4,0 C 92 % 1013,3 hPa 0,2 l/m 1,4 km/h (1 Bft) W-SW 237 0 min 0,000 mm 0 W/m 2,8 C 4,0 C 6,4 km/h (2 Bft) 97 %
30.01.2017 20:00 4,2 C 4,0 C 4,2 C 92 % 1013,3 hPa 0,0 l/m 3,5 km/h (1 Bft) W 259 0 min 0,000 mm 0 W/m 3,0 C 4,2 C 9,7 km/h (2 Bft) 98 %
30.01.2017 20:10 4,4 C 4,2 C 4,4 C 92 % 1013,3 hPa 0,0 l/m 3,3 km/h (1 Bft) W-SW 243 0 min 0,000 mm 0 W/m 3,2 C 4,4 C 14,5 km/h (3 Bft) 98 %
30.01.2017 20:20 4,6 C 4,4 C 4,6 C 92 % 1013,2 hPa 0,4 l/m 6,9 km/h (2 Bft) S-SW 203 0 min 0,000 mm 0 W/m 3,4 C 4,2 C 17,7 km/h (3 Bft) 100 %
30.01.2017 20:30 4,7 C 4,6 C 4,7 C 92 % 1013,2 hPa 0,2 l/m 8,5 km/h (2 Bft) W-SW 250 0 min 0,000 mm 0 W/m 3,5 C 2,9 C 19,3 km/h (3 Bft) 100 %
30.01.2017 20:40 4,7 C 4,6 C 4,7 C 92 % 1013,1 hPa 0,2 l/m 9,4 km/h (2 Bft) W-SW 257 0 min 0,000 mm 0 W/m 3,5 C 2,2 C 19,3 km/h (3 Bft) 99 %
30.01.2017 20:50 4,7 C 4,7 C 4,7 C 92 % 1013,2 hPa 0,0 l/m 11,3 km/h (2 Bft) SW 218 0 min 0,000 mm 0 W/m 3,5 C 0,9 C 22,5 km/h (4 Bft) 100 %
30.01.2017 21:00 4,7 C 4,7 C 4,7 C 92 % 1013,2 hPa 0,0 l/m 9,1 km/h (2 Bft) S-SW 211 0 min 0,000 mm 0 W/m 3,5 C 2,4 C 17,7 km/h (3 Bft) 100 %
30.01.2017 21:10 4,7 C 4,7 C 4,7 C 92 % 1013,2 hPa 0,4 l/m 9,7 km/h (2 Bft) SW 225 0 min 0,000 mm 0 W/m 3,5 C 2,0 C 20,9 km/h (4 Bft) 100 %
30.01.2017 21:20 4,8 C 4,7 C 4,8 C 92 % 1013,1 hPa 0,0 l/m 8,0 km/h (2 Bft) SW 225 0 min 0,000 mm 0 W/m 3,6 C 3,4 C 19,3 km/h (3 Bft) 100 %
30.01.2017 21:30 4,9 C 4,8 C 4,9 C 92 % 1013,1 hPa 0,0 l/m 9,7 km/h (2 Bft) W-SW 247 0 min 0,000 mm 0 W/m 3,7 C 2,2 C 25,7 km/h (4 Bft) 100 %
30.01.2017 21:40 4,9 C 4,9 C 4,9 C 92 % 1013,1 hPa 0,0 l/m 8,0 km/h (2 Bft) W-SW 247 0 min 0,000 mm 0 W/m 3,7 C 3,5 C 19,3 km/h (3 Bft) 100 %
30.01.2017 21:50 4,9 C 4,9 C 4,9 C 92 % 1013,0 hPa 0,4 l/m 6,4 km/h (2 Bft) W-SW 247 0 min 0,000 mm 0 W/m 3,7 C 4,9 C 16,1 km/h (3 Bft) 100 %
30.01.2017 22:00 4,9 C 4,9 C 4,9 C 92 % 1012,9 hPa 0,2 l/m 8,0 km/h (2 Bft) SW 225 0 min 0,000 mm 0 W/m 3,7 C 3,5 C 20,9 km/h (4 Bft) 91 %
30.01.2017 22:10 4,9 C 4,9 C 4,9 C 92 % 1012,9 hPa 0,2 l/m 6,4 km/h (2 Bft) SW 225 0 min 0,000 mm 0 W/m 3,7 C 4,9 C 17,7 km/h (3 Bft) 100 %
30.01.2017 22:20 4,9 C 4,9 C 4,9 C 92 % 1012,9 hPa 0,2 l/m 8,0 km/h (2 Bft) SW 225 0 min 0,000 mm 0 W/m 3,7 C 3,5 C 17,7 km/h (3 Bft) 100 %
30.01.2017 22:30 5,0 C 4,9 C 5,0 C 92 % 1012,8 hPa 0,2 l/m 9,7 km/h (2 Bft) SW 225 0 min 0,000 mm 0 W/m 3,8 C 2,3 C 19,3 km/h (3 Bft) 100 %
30.01.2017 22:40 5,1 C 5,0 C 5,1 C 92 % 1012,8 hPa 0,2 l/m 9,7 km/h (2 Bft) SW 225 0 min 0,000 mm 0 W/m 3,9 C 2,4 C 19,3 km/h (3 Bft) 100 %
30.01.2017 22:50 5,1 C 5,1 C 5,1 C 92 % 1012,8 hPa 0,2 l/m 9,7 km/h (2 Bft) SW 225 0 min 0,000 mm 0 W/m 3,9 C 2,4 C 24,1 km/h (4 Bft) 100 %
30.01.2017 23:00 5,0 C 5,0 C 5,1 C 92 % 1012,9 hPa 0,4 l/m 8,0 km/h (2 Bft) SW 225 0 min 0,000 mm 0 W/m 3,8 C 3,6 C 19,3 km/h (3 Bft) 100 %
30.01.2017 23:10 5,1 C 5,0 C 5,1 C 92 % 1012,8 hPa 0,0 l/m 9,7 km/h (2 Bft) SW 225 0 min 0,000 mm 0 W/m 3,9 C 2,4 C 20,9 km/h (4 Bft) 100 %
30.01.2017 23:20 5,1 C 5,1 C 5,1 C 92 % 1012,8 hPa 0,2 l/m 9,7 km/h (2 Bft) SW 225 0 min 0,000 mm 0 W/m 3,9 C 2,4 C 20,9 km/h (4 Bft) 100 %
30.01.2017 23:30 5,2 C 5,1 C 5,2 C 92 % 1012,8 hPa 0,2 l/m 9,7 km/h (2 Bft) W-SW 247 0 min 0,000 mm 0 W/m 4,0 C 2,5 C 24,1 km/h (4 Bft) 100 %
30.01.2017 23:40 5,2 C 5,2 C 5,2 C 92 % 1012,8 hPa 0,2 l/m 8,0 km/h (2 Bft) W-SW 247 0 min 0,000 mm 0 W/m 4,0 C 3,8 C 19,3 km/h (3 Bft) 100 %
30.01.2017 23:50 5,2 C 5,2 C 5,2 C 92 % 1012,7 hPa 0,0 l/m 8,0 km/h (2 Bft) SW 225 0 min 0,000 mm 0 W/m 4,0 C 3,8 C 24,1 km/h (4 Bft) 100 %
_ Min-Zeit 03:50 03:50 03:50 00:10 15:20 - 00:00 - - - - - 03:50 03:50 00:00 18:50
Minimum _ -4,3 C -4,3 C -4,2 C 91 % 1012,6 hPa - 0,0 km/h (0 Bft) - - - - - -5,4 C -4,3 C 0,0 km/h (0 Bft) 89 %
_ Max-Zeit 23:30 23:40 23:30 00:00 00:10 20:20 20:50 - - 12:40 13:00 14:00 23:30 21:50 21:30 04:00
Maximum _ 5,2 C 5,2 C 5,2 C 92 % 1021,7 hPa 0,4 l/m 11,3 km/h
SW (2 Bft)
- - 10 min 0,051 mm 186 W/m 4,0 C 4,9 C 25,7 km/h
SW (4 Bft)
100 %
Durchschnitt _ 1,4 C 1,3 C 1,5 C 92 % 1015,9 hPa #7,8 l/m 3,8 km/h (1 Bft) S-SO - #1:00 h #0,229 mm 71 W/m 0,3 C 1,1 C 9,2 km/h (2 Bft) 99 %
PRIVATE WETTERSTATION BILLIGHEIM-ALLFELD - www.neckar-odenwald-wetter.de - Holger Sonntag